Location: Buckland
(65.9785°N, 161.1281°W)
Time: 03:17:31
(UTC+00:00)

Transit 4A - Pass Details

Date: 28 November 2020
Orbit: 864 x 980 km, 66.8° (Epoch: 26 January)

Event Time Altitude Azimuth Distance (km) Brightness Sun altitude
Rises 02:46:38 0° 303° (WNW) 3,695 11.4 -9.4°
Reaches altitude 10° 02:49:19 10° 298° (WNW) 2,743 10.8 -9.7°
Maximum altitude 02:55:20 44° 229° (SW) 1,320 9.3 -10.2°
Drops below altitude 10° 03:01:15 10° 159° (SSE) 2,693 10.4 -10.7°
Sets 03:03:52 0° 153° (SSE) 3,621 11.0 -10.9°
